Change the Weather History Date:

Wednesday, January 2, 2013

  Actual Average Record
Temperature  
Mean Temperature 26 °F -  
Max Temperature 30 °F 39 °F 51 °F (2012)
Min Temperature 21 °F 23 °F 5 °F (1999)
Degree Days  
Heating Degree Days 40    
Moisture  
Dew Point 12 °F    
Average Humidity 53    
Maximum Humidity 69    
Minimum Humidity 45    
Precipitation  
Precipitation 0.00 in - - ()
Sea Level Pressure  
Sea Level Pressure 30.05 in    
Wind  
Wind Speed 9 mph (NW)    
Max Wind Speed 15 mph    
Max Gust Speed 23 mph    
Visibility 10 miles    
Events      
Averages and records for this station are not official NWS values.
T = Trace of Precipitation, MM = Missing Value Source: NWS Daily Summary

Daily Weather History Graph

Daily Weather History Graph

Search for Another Location

Airport or City:

Trip Planner

Search our weather history database for the weather conditions in past years. The results will help you decide how hot, cold, wet, or windy it might be!

Date:

Astronomy

Jan. 02, 2013 Rise Set
Actual Time 7:15 AM EST 4:34 PM EST
Civil Twilight 6:44 AM EST 5:05 PM EST
Nautical Twilight 6:09 AM EST 5:39 PM EST
Astronomical Twilight 5:36 AM EST 6:13 PM EST
Moon 10:06 PM EST (1/2) 9:53 AM EST (1/2)
Length of Visible Light 10h 21m
Length of Day
9h 19m
Waning Gibbous, 75% of the Moon is Illuminated
Jan 2
Waning Gibbous
Jan 4
Last Quarter
Jan 11
New
Jan 18
First Quarter
Jan 26
Full

Hourly Weather History & Observations

Time (EST) Temp. Windchill Dew Point Humidity Pressure Visibility Wind Dir Wind Speed Gust Speed Precip Events Conditions
12:53 AM 27.0 °F 18.0 °F 12.0 °F 53% 29.99 in 10.0 mi NNW 9.2 mph - N/A   Clear
1:53 AM 27.0 °F 17.3 °F 12.0 °F 53% 30.00 in 10.0 mi NNW 10.4 mph - N/A   Clear
2:53 AM 26.1 °F 16.2 °F 10.0 °F 51% 30.00 in 10.0 mi NNW 10.4 mph - N/A   Clear
3:53 AM 25.0 °F 14.2 °F 10.0 °F 53% 30.01 in 10.0 mi NNW 11.5 mph - N/A   Clear
4:53 AM 24.1 °F 13.1 °F 9.0 °F 53% 30.02 in 10.0 mi NW 11.5 mph 18.4 mph N/A   Clear
5:53 AM 24.1 °F 15.2 °F 10.0 °F 55% 30.01 in 10.0 mi NNW 8.1 mph - N/A   Clear
6:53 AM 24.1 °F 14.4 °F 9.0 °F 53% 30.02 in 10.0 mi NNW 9.2 mph - N/A   Clear
7:53 AM 21.9 °F 17.2 °F 10.0 °F 60% 30.02 in 10.0 mi NNW 3.5 mph - N/A   Clear
8:53 AM 25.0 °F 18.1 °F 12.0 °F 58% 30.04 in 10.0 mi WNW 5.8 mph - N/A   Clear
10:53 AM 28.9 °F 18.6 °F 10.0 °F 45% 30.06 in 10.0 mi West 12.7 mph - N/A   Clear
11:53 AM 30.0 °F 19.1 °F 10.9 °F 45% 30.02 in 10.0 mi WNW 15.0 mph 20.7 mph N/A   Clear
12:53 PM 30.9 °F 20.2 °F 12.0 °F 46% 30.00 in 10.0 mi WNW 15.0 mph 23.0 mph N/A   Clear
1:53 PM 30.9 °F 20.7 °F 12.0 °F 46% 30.00 in 10.0 mi WNW 13.8 mph - N/A   Clear
2:53 PM 30.9 °F 21.2 °F 14.0 °F 50% 30.04 in 10.0 mi West 12.7 mph - N/A   Clear
3:53 PM 30.9 °F 22.2 °F 12.9 °F 47% 30.05 in 10.0 mi WNW 10.4 mph - N/A   Clear
4:53 PM 30.0 °F 21.7 °F 12.9 °F 49% 30.07 in 10.0 mi WNW 9.2 mph - N/A   Clear
5:53 PM 28.9 °F 23.9 °F 14.0 °F 54% 30.10 in 10.0 mi West 4.6 mph - N/A   Scattered Clouds
6:53 PM 30.0 °F 24.1 °F 14.0 °F 51% 30.12 in 10.0 mi WNW 5.8 mph - N/A   Partly Cloudy
8:53 PM 27.0 °F 21.6 °F 14.0 °F 58% 30.13 in 10.0 mi WSW 4.6 mph - N/A   Clear
9:53 PM 27.0 °F 21.6 °F 15.1 °F 61% 30.14 in 10.0 mi West 4.6 mph - N/A   Mostly Cloudy
11:53 PM 24.1 °F 19.7 °F 15.1 °F 69% 30.16 in 10.0 mi WNW 3.5 mph - N/A   Scattered Clouds